Time,TemperatureF,DewpointF,PressureIn,WindDirection,WindDirectionDegrees,WindSpeedMPH,WindSpeedGustMPH,Humidity,HourlyPrecipIn,Conditions,Clouds,dailyrainin,SoftwareType,DateUTC
2013-04-17 00:00:00,61.1,52.4,30.17,SW,232,3.0,8.0,73,0.00,,,0.00,WeatherCatV1.02B4,2013-04-17 04:00:00,
2013-04-17 00:05:00,61.1,52.7,30.17,SW,215,6.0,7.0,74,0.00,,,0.00,WeatherCatV1.02B4,2013-04-17 04:05:00,
2013-04-17 00:10:00,61.0,52.6,30.17,SW,215,0.0,5.0,74,0.00,,,0.00,WeatherCatV1.02B4,2013-04-17 04:10:00,
2013-04-17 00:15:00,61.0,52.6,30.17,SW,214,0.0,6.0,74,0.00,,,0.00,WeatherCatV1.02B4,2013-04-17 04:15:00,
2013-04-17 00:20:00,61.0,52.6,30.17,SW,214,0.0,0.0,74,0.00,,,0.00,WeatherCatV1.02B4,2013-04-17 04:20:00,
2013-04-17 00:25:00,61.0,53.0,30.17,SW,216,0.0,5.0,75,0.00,,,0.00,WeatherCatV1.02B4,2013-04-17 04:25:00,
2013-04-17 00:30:00,60.9,52.9,30.17,SW,220,4.0,5.0,75,0.00,,,0.00,WeatherCatV1.02B4,2013-04-17 04:30:00,
2013-04-17 00:35:00,60.9,52.9,30.17,SW,230,0.0,5.0,75,0.00,,,0.00,WeatherCatV1.02B4,2013-04-17 04:35:00,
2013-04-17 00:40:00,60.9,52.9,30.17,SW,230,0.0,0.0,75,0.00,,,0.00,WeatherCatV1.02B4,2013-04-17 04:40:00,
2013-04-17 00:41:00,60.8,52.8,30.17,SW,230,0.0,0.0,75,0.00,,,0.00,WeatherCatV1.02B4,2013-04-17 04:41:00,
2013-04-17 00:46:00,60.7,52.7,30.17,SW,230,0.0,0.0,75,0.00,,,0.00,WeatherCatV1.02B4,2013-04-17 04:46:00,
2013-04-17 00:51:00,60.6,52.6,30.17,SW,230,0.0,0.0,75,0.00,,,0.00,WeatherCatV1.02B4,2013-04-17 04:51:00,
2013-04-17 00:56:00,60.5,52.5,30.16,SW,230,0.0,0.0,75,0.00,,,0.00,WeatherCatV1.02B4,2013-04-17 04:56:00,
2013-04-17 01:01:00,60.4,52.8,30.16,SW,230,0.0,0.0,76,0.00,,,0.00,WeatherCatV1.02B4,2013-04-17 05:01:00,
2013-04-17 01:06:00,60.3,52.7,30.16,SW,227,0.0,0.0,76,0.00,,,0.00,WeatherCatV1.02B4,2013-04-17 05:06:00,
2013-04-17 01:11:00,60.3,53.1,30.16,SW,225,0.0,0.0,77,0.00,,,0.00,WeatherCatV1.02B4,2013-04-17 05:11:00,
2013-04-17 01:16:00,60.2,53.0,30.16,SW,225,0.0,0.0,77,0.00,,,0.00,WeatherCatV1.02B4,2013-04-17 05:16:00,
2013-04-17 01:21:00,60.3,53.4,30.16,SW,220,0.0,5.0,78,0.00,,,0.00,WeatherCatV1.02B4,2013-04-17 05:21:00,
2013-04-17 01:26:00,60.3,53.4,30.17,WSW,239,0.0,3.0,78,0.00,,,0.00,WeatherCatV1.02B4,2013-04-17 05:26:00,
2013-04-17 01:31:00,60.4,53.5,30.16,SW,228,0.0,5.0,78,0.00,,,0.00,WeatherCatV1.02B4,2013-04-17 05:31:00,
2013-04-17 01:36:00,60.4,53.5,30.17,SW,229,0.0,0.0,78,0.00,,,0.00,WeatherCatV1.02B4,2013-04-17 05:36:00,
2013-04-17 01:41:00,60.5,53.6,30.17,WSW,242,0.0,0.0,78,0.00,,,0.00,WeatherCatV1.02B4,2013-04-17 05:41:00,
2013-04-17 01:45:00,60.5,53.6,30.17,WSW,238,0.0,0.0,78,0.00,,,0.00,WeatherCatV1.02B4,2013-04-17 05:45:00,
2013-04-17 01:50:00,60.6,53.7,30.16,SSW,209,0.0,5.0,78,0.00,,,0.00,WeatherCatV1.02B4,2013-04-17 05:50:00,
2013-04-17 01:55:00,60.6,53.7,30.16,SSW,209,0.0,0.0,78,0.00,,,0.00,WeatherCatV1.02B4,2013-04-17 05:55:00,
2013-04-17 02:00:00,60.6,53.7,30.16,SSW,194,3.0,7.0,78,0.00,,,0.00,WeatherCatV1.02B4,2013-04-17 06:00:00,
2013-04-17 02:05:00,60.7,53.8,30.15,SW,225,0.0,0.0,78,0.00,,,0.00,WeatherCatV1.02B4,2013-04-17 06:05:00,
2013-04-17 02:10:00,60.7,53.8,30.16,SSW,210,2.0,7.0,78,0.00,,,0.00,WeatherCatV1.02B4,2013-04-17 06:10:00,
2013-04-17 02:15:00,60.8,53.9,30.15,SSW,210,0.0,0.0,78,0.00,,,0.00,WeatherCatV1.02B4,2013-04-17 06:15:00,
2013-04-17 02:20:00,60.8,53.9,30.15,SSW,211,2.0,7.0,78,0.00,,,0.00,WeatherCatV1.02B4,2013-04-17 06:20:00,
2013-04-17 02:25:00,60.8,53.9,30.15,SSW,206,0.0,0.0,78,0.00,,,0.00,WeatherCatV1.02B4,2013-04-17 06:25:00,
2013-04-17 02:30:00,60.8,53.9,30.15,SW,216,7.0,7.0,78,0.00,,,0.00,WeatherCatV1.02B4,2013-04-17 06:30:00,
2013-04-17 02:35:00,60.8,53.9,30.15,SW,219,4.0,5.0,78,0.00,,,0.00,WeatherCatV1.02B4,2013-04-17 06:35:00,
2013-04-17 02:40:00,60.8,53.9,30.15,SW,214,0.0,11.0,78,0.00,,,0.00,WeatherCatV1.02B4,2013-04-17 06:40:00,
2013-04-17 02:45:00,60.8,54.2,30.15,SW,218,1.0,5.0,79,0.00,,,0.00,WeatherCatV1.02B4,2013-04-17 06:45:00,
2013-04-17 02:50:00,60.8,54.2,30.14,SW,231,0.0,6.0,79,0.00,,,0.00,WeatherCatV1.02B4,2013-04-17 06:50:00,
2013-04-17 02:55:00,60.8,54.2,30.14,SSW,202,0.0,0.0,79,0.00,,,0.00,WeatherCatV1.02B4,2013-04-17 06:55:00,
2013-04-17 03:00:00,60.7,54.1,30.14,SSW,212,3.0,4.0,79,0.00,,,0.00,WeatherCatV1.02B4,2013-04-17 07:00:00,
2013-04-17 03:05:00,60.7,54.1,30.14,SW,218,0.0,0.0,79,0.00,,,0.00,WeatherCatV1.02B4,2013-04-17 07:05:00,
2013-04-17 03:10:00,60.6,54.0,30.14,SW,218,0.0,0.0,79,0.00,,,0.00,WeatherCatV1.02B4,2013-04-17 07:10:00,
2013-04-17 03:15:00,60.5,54.0,30.14,SW,218,0.0,4.0,79,0.00,,,0.00,WeatherCatV1.02B4,2013-04-17 07:15:00,
2013-04-17 03:20:00,60.4,53.9,30.14,SW,218,0.0,0.0,79,0.00,,,0.00,WeatherCatV1.02B4,2013-04-17 07:20:00,
2013-04-17 03:25:00,60.4,54.2,30.14,SW,218,0.0,0.0,80,0.00,,,0.00,WeatherCatV1.02B4,2013-04-17 07:25:00,
2013-04-17 03:30:00,60.3,54.1,30.14,SW,218,0.0,0.0,80,0.00,,,0.00,WeatherCatV1.02B4,2013-04-17 07:30:00,
2013-04-17 03:35:00,60.2,54.0,30.14,SW,218,0.0,0.0,80,0.00,,,0.00,WeatherCatV1.02B4,2013-04-17 07:35:00,
2013-04-17 03:40:00,60.2,54.0,30.14,SW,218,0.0,0.0,80,0.00,,,0.00,WeatherCatV1.02B4,2013-04-17 07:40:00,
2013-04-17 03:45:00,60.1,54.2,30.14,SW,218,0.0,0.0,81,0.00,,,0.00,WeatherCatV1.02B4,2013-04-17 07:45:00,
2013-04-17 03:50:00,60.1,54.2,30.14,SW,218,0.0,0.0,81,0.00,,,0.00,WeatherCatV1.02B4,2013-04-17 07:50:00,
2013-04-17 03:55:00,60.1,54.2,30.14,SW,219,0.0,0.0,81,0.00,,,0.00,WeatherCatV1.02B4,2013-04-17 07:55:00,
2013-04-17 04:00:00,60.1,54.2,30.13,SW,219,0.0,0.0,81,0.00,,,0.00,WeatherCatV1.02B4,2013-04-17 08:00:00,
2013-04-17 04:05:00,60.1,54.6,30.13,SW,219,0.0,0.0,82,0.00,,,0.00,WeatherCatV1.02B4,2013-04-17 08:05:00,
2013-04-17 04:10:00,60.1,54.6,30.13,SW,219,0.0,0.0,82,0.00,,,0.00,WeatherCatV1.02B4,2013-04-17 08:10:00,
2013-04-17 04:15:00,60.1,54.2,30.12,SW,219,0.0,0.0,81,0.00,,,0.00,WeatherCatV1.02B4,2013-04-17 08:15:00,
2013-04-17 04:20:00,60.0,54.5,30.13,SW,219,0.0,0.0,82,0.00,,,0.00,WeatherCatV1.02B4,2013-04-17 08:20:00,
2013-04-17 04:25:00,60.0,54.8,30.12,SW,219,0.0,0.0,83,0.00,,,0.00,WeatherCatV1.02B4,2013-04-17 08:25:00,
2013-04-17 04:31:00,59.9,54.7,30.12,SW,219,0.0,0.0,83,0.00,,,0.00,WeatherCatV1.02B4,2013-04-17 08:31:00,
2013-04-17 04:35:00,59.7,54.9,30.12,SW,219,0.0,0.0,84,0.00,,,0.00,WeatherCatV1.02B4,2013-04-17 08:35:00,
2013-04-17 04:40:00,59.5,54.7,30.12,SW,219,0.0,0.0,84,0.00,,,0.00,WeatherCatV1.02B4,2013-04-17 08:40:00,
2013-04-17 04:46:00,59.4,54.9,30.11,SW,219,0.0,0.0,85,0.00,,,0.00,WeatherCatV1.02B4,2013-04-17 08:46:00,
2013-04-17 04:51:00,59.1,54.9,30.11,SW,219,0.0,0.0,86,0.00,,,0.00,WeatherCatV1.02B4,2013-04-17 08:51:00,
2013-04-17 04:56:00,58.8,54.6,30.11,SW,219,0.0,0.0,86,0.00,,,0.00,WeatherCatV1.02B4,2013-04-17 08:56:00,
2013-04-17 05:01:00,58.6,54.7,30.11,SW,219,0.0,0.0,87,0.00,,,0.00,WeatherCatV1.02B4,2013-04-17 09:01:00,
2013-04-17 05:06:00,58.4,54.5,30.11,SW,219,0.0,0.0,87,0.00,,,0.00,WeatherCatV1.02B4,2013-04-17 09:06:00,
2013-04-17 05:11:00,58.3,54.4,30.11,SW,219,0.0,0.0,87,0.00,,,0.00,WeatherCatV1.02B4,2013-04-17 09:11:00,
2013-04-17 05:16:00,58.0,54.5,30.12,SW,219,0.0,0.0,88,0.00,,,0.00,WeatherCatV1.02B4,2013-04-17 09:16:00,
2013-04-17 05:21:00,57.9,54.4,30.13,SW,219,0.0,0.0,88,0.00,,,0.00,WeatherCatV1.02B4,2013-04-17 09:21:00,
2013-04-17 05:26:00,57.8,54.3,30.13,SW,219,0.0,0.0,88,0.00,,,0.00,WeatherCatV1.02B4,2013-04-17 09:26:00,
2013-04-17 05:31:00,57.7,54.2,30.13,SW,219,0.0,0.0,88,0.00,,,0.00,WeatherCatV1.02B4,2013-04-17 09:31:00,
2013-04-17 05:36:00,57.7,54.2,30.14,SW,219,0.0,0.0,88,0.00,,,0.00,WeatherCatV1.02B4,2013-04-17 09:36:00,
2013-04-17 05:41:00,57.6,54.4,30.14,SW,219,0.0,0.0,89,0.00,,,0.00,WeatherCatV1.02B4,2013-04-17 09:41:00,
2013-04-17 05:46:00,57.6,54.4,30.15,SW,219,0.0,0.0,89,0.00,,,0.00,WeatherCatV1.02B4,2013-04-17 09:46:00,
2013-04-17 05:51:00,57.6,54.4,30.14,SW,219,0.0,0.0,89,0.00,,,0.00,WeatherCatV1.02B4,2013-04-17 09:51:00,
2013-04-17 05:56:00,57.7,54.8,30.15,SW,219,0.0,0.0,90,0.00,,,0.00,WeatherCatV1.02B4,2013-04-17 09:56:00,
2013-04-17 06:01:00,57.7,54.8,30.15,SW,219,0.0,0.0,90,0.00,,,0.00,WeatherCatV1.02B4,2013-04-17 10:01:00,
2013-04-17 06:06:00,57.8,54.9,30.15,SW,223,0.0,0.0,90,0.00,,,0.00,WeatherCatV1.02B4,2013-04-17 10:06:00,
2013-04-17 06:11:00,57.8,54.9,30.15,SW,223,0.0,0.0,90,0.00,,,0.00,WeatherCatV1.02B4,2013-04-17 10:11:00,
2013-04-17 06:16:00,57.9,55.0,30.15,SW,223,0.0,0.0,90,0.00,,,0.00,WeatherCatV1.02B4,2013-04-17 10:16:00,
2013-04-17 06:21:00,57.9,55.3,30.15,SW,223,0.0,0.0,91,0.00,,,0.00,WeatherCatV1.02B4,2013-04-17 10:21:00,
2013-04-17 06:26:00,57.9,55.3,30.16,SW,223,0.0,0.0,91,0.00,,,0.00,WeatherCatV1.02B4,2013-04-17 10:26:00,
2013-04-17 06:31:00,57.9,55.3,30.16,SW,223,0.0,0.0,91,0.00,,,0.00,WeatherCatV1.02B4,2013-04-17 10:31:00,
2013-04-17 06:36:00,57.9,55.3,30.17,SW,223,0.0,0.0,91,0.00,,,0.00,WeatherCatV1.02B4,2013-04-17 10:36:00,
2013-04-17 06:41:00,58.0,55.4,30.17,SW,223,0.0,0.0,91,0.00,,,0.00,WeatherCatV1.02B4,2013-04-17 10:41:00,
2013-04-17 06:46:00,58.0,55.4,30.17,SW,223,0.0,0.0,91,0.00,,,0.00,WeatherCatV1.02B4,2013-04-17 10:46:00,
2013-04-17 06:51:00,58.1,55.5,30.18,SW,223,0.0,0.0,91,0.00,,,0.00,WeatherCatV1.02B4,2013-04-17 10:51:00,
2013-04-17 06:56:00,58.1,55.5,30.18,SW,223,0.0,0.0,91,0.00,,,0.00,WeatherCatV1.02B4,2013-04-17 10:56:00,
2013-04-17 07:01:00,58.1,55.8,30.19,SW,223,0.0,0.0,92,0.00,,,0.00,WeatherCatV1.02B4,2013-04-17 11:01:00,
2013-04-17 07:06:00,58.2,55.9,30.19,SW,223,0.0,0.0,92,0.00,,,0.00,WeatherCatV1.02B4,2013-04-17 11:06:00,
2013-04-17 07:11:00,58.2,55.9,30.19,SW,223,0.0,0.0,92,0.00,,,0.00,WeatherCatV1.02B4,2013-04-17 11:11:00,
2013-04-17 07:16:00,58.2,55.9,30.19,SW,223,0.0,0.0,92,0.00,,,0.00,WeatherCatV1.02B4,2013-04-17 11:16:00,
2013-04-17 07:21:00,58.3,56.0,30.20,SW,223,0.0,0.0,92,0.00,,,0.00,WeatherCatV1.02B4,2013-04-17 11:21:00,
2013-04-17 07:26:00,58.3,56.0,30.20,SW,233,0.0,1.0,92,0.00,,,0.00,WeatherCatV1.02B4,2013-04-17 11:26:00,
2013-04-17 07:31:00,58.2,55.9,30.21,North,0,0.0,0.0,92,0.00,,,0.00,WeatherCatV1.02B4,2013-04-17 11:31:00,
2013-04-17 07:36:00,57.4,54.8,30.21,North,2,2.0,6.0,91,0.00,,,0.00,WeatherCatV1.02B4,2013-04-17 11:36:00,
2013-04-17 07:41:00,56.9,54.0,30.21,North,3,0.0,3.0,90,0.00,,,0.00,WeatherCatV1.02B4,2013-04-17 11:41:00,
2013-04-17 07:46:00,56.7,53.8,30.22,North,5,0.0,0.0,90,0.00,,,0.00,WeatherCatV1.02B4,2013-04-17 11:46:00,
2013-04-17 07:51:00,56.7,53.5,30.22,NE,34,0.0,6.0,89,0.00,,,0.00,WeatherCatV1.02B4,2013-04-17 11:51:00,
2013-04-17 07:56:00,56.4,52.9,30.22,NNW,346,2.0,6.0,88,0.00,,,0.00,WeatherCatV1.02B4,2013-04-17 11:56:00,
2013-04-17 08:01:00,56.1,52.0,30.22,NNE,26,3.0,7.0,86,0.00,,,0.00,WeatherCatV1.02B4,2013-04-17 12:01:00,
2013-04-17 08:06:00,56.0,51.2,30.22,NW,313,2.0,10.0,84,0.00,,,0.00,WeatherCatV1.02B4,2013-04-17 12:06:00,
2013-04-17 08:11:00,55.9,50.5,30.22,NNW,331,1.0,4.0,82,0.00,,,0.00,WeatherCatV1.02B4,2013-04-17 12:11:00,
2013-04-17 08:16:00,55.8,49.7,30.22,ENE,66,0.0,0.0,80,0.00,,,0.00,WeatherCatV1.02B4,2013-04-17 12:16:00,
2013-04-17 08:21:00,55.8,49.4,30.22,NNE,20,1.0,4.0,79,0.00,,,0.00,WeatherCatV1.02B4,2013-04-17 12:21:00,
2013-04-17 08:26:00,55.8,49.0,30.22,NNE,18,0.0,0.0,78,0.00,,,0.00,WeatherCatV1.02B4,2013-04-17 12:26:00,
2013-04-17 08:31:00,56.0,48.9,30.22,NE,37,0.0,0.0,77,0.00,,,0.00,WeatherCatV1.02B4,2013-04-17 12:31:00,
2013-04-17 08:36:00,56.1,48.6,30.22,NNE,30,3.0,6.0,76,0.00,,,0.00,WeatherCatV1.02B4,2013-04-17 12:36:00,
2013-04-17 08:41:00,56.2,48.7,30.23,NNE,21,2.0,3.0,76,0.00,,,0.00,WeatherCatV1.02B4,2013-04-17 12:41:00,
2013-04-17 08:46:00,56.4,49.3,30.23,NNE,20,0.0,0.0,77,0.00,,,0.00,WeatherCatV1.02B4,2013-04-17 12:46:00,
2013-04-17 08:51:00,56.4,48.9,30.24,NNE,21,0.0,0.0,76,0.00,,,0.00,WeatherCatV1.02B4,2013-04-17 12:51:00,
2013-04-17 08:57:00,56.3,48.5,30.24,ESE,117,0.0,8.0,75,0.00,,,0.00,WeatherCatV1.02B4,2013-04-17 12:57:00,
2013-04-17 09:02:00,56.2,47.7,30.24,NNE,33,0.0,4.0,73,0.00,,,0.00,WeatherCatV1.02B4,2013-04-17 13:02:00,
2013-04-17 09:07:00,56.1,47.6,30.24,NNE,31,0.0,0.0,73,0.00,,,0.00,WeatherCatV1.02B4,2013-04-17 13:07:00,
2013-04-17 09:12:00,56.1,47.6,30.24,WNW,288,0.0,0.0,73,0.00,,,0.00,WeatherCatV1.02B4,2013-04-17 13:12:00,
2013-04-17 09:17:00,56.1,47.2,30.24,NW,307,0.0,0.0,72,0.00,,,0.00,WeatherCatV1.02B4,2013-04-17 13:17:00,
2013-04-17 09:22:00,56.1,47.2,30.24,North,1,0.0,0.0,72,0.00,,,0.00,WeatherCatV1.02B4,2013-04-17 13:22:00,
2013-04-17 09:27:00,56.1,46.8,30.24,NNE,27,0.0,0.0,71,0.00,,,0.00,WeatherCatV1.02B4,2013-04-17 13:27:00,
2013-04-17 09:32:00,56.2,46.9,30.24,NNE,25,0.0,0.0,71,0.00,,,0.00,WeatherCatV1.02B4,2013-04-17 13:32:00,
2013-04-17 09:37:00,56.3,46.6,30.24,NNE,27,2.0,2.0,70,0.00,,,0.00,WeatherCatV1.02B4,2013-04-17 13:37:00,
2013-04-17 09:42:00,56.4,46.4,30.24,NNW,336,0.0,1.0,69,0.00,,,0.00,WeatherCatV1.02B4,2013-04-17 13:42:00,
2013-04-17 09:47:00,56.5,46.5,30.24,NNE,25,0.0,2.0,69,0.00,,,0.00,WeatherCatV1.02B4,2013-04-17 13:47:00,
2013-04-17 09:52:00,56.7,46.6,30.24,NNE,28,0.0,0.0,69,0.00,,,0.00,WeatherCatV1.02B4,2013-04-17 13:52:00,
2013-04-17 09:57:00,56.9,46.4,30.24,NNE,27,0.0,3.0,68,0.00,,,0.00,WeatherCatV1.02B4,2013-04-17 13:57:00,
2013-04-17 10:02:00,57.1,46.2,30.24,North,6,0.0,4.0,67,0.00,,,0.00,WeatherCatV1.02B4,2013-04-17 14:02:00,
2013-04-17 10:07:00,57.2,46.3,30.24,North,9,4.0,4.0,67,0.00,,,0.00,WeatherCatV1.02B4,2013-04-17 14:07:00,
2013-04-17 10:12:00,57.3,46.4,30.24,NNE,19,0.0,4.0,67,0.00,,,0.00,WeatherCatV1.02B4,2013-04-17 14:12:00,
2013-04-17 10:17:00,57.4,46.5,30.25,NNE,28,3.0,4.0,67,0.00,,,0.00,WeatherCatV1.02B4,2013-04-17 14:17:00,
2013-04-17 10:22:00,57.5,45.8,30.24,North,9,3.0,10.0,65,0.00,,,0.00,WeatherCatV1.02B4,2013-04-17 14:22:00,
2013-04-17 10:27:00,57.6,45.9,30.25,WSW,252,1.0,7.0,65,0.00,,,0.00,WeatherCatV1.02B4,2013-04-17 14:27:00,
2013-04-17 10:32:00,57.7,46.0,30.25,NNE,24,0.0,6.0,65,0.00,,,0.00,WeatherCatV1.02B4,2013-04-17 14:32:00,
2013-04-17 10:37:00,57.8,45.7,30.25,North,7,0.0,8.0,64,0.00,,,0.00,WeatherCatV1.02B4,2013-04-17 14:37:00,
2013-04-17 10:42:00,57.7,45.6,30.25,NNW,348,0.0,2.0,64,0.00,,,0.00,WeatherCatV1.02B4,2013-04-17 14:42:00,
2013-04-17 10:47:00,57.6,45.5,30.25,NNE,33,3.0,4.0,64,0.00,,,0.00,WeatherCatV1.02B4,2013-04-17 14:47:00,
2013-04-17 10:52:00,57.7,45.6,30.25,NNE,13,0.0,0.0,64,0.00,,,0.00,WeatherCatV1.02B4,2013-04-17 14:52:00,
2013-04-17 10:57:00,57.8,45.7,30.25,NNE,22,2.0,5.0,64,0.00,,,0.00,WeatherCatV1.02B4,2013-04-17 14:57:00,
2013-04-17 11:02:00,57.9,45.4,30.25,NNE,18,0.0,6.0,63,0.00,,,0.00,WeatherCatV1.02B4,2013-04-17 15:02:00,
2013-04-17 11:07:00,58.0,45.5,30.24,NNW,348,0.0,4.0,63,0.00,,,0.00,WeatherCatV1.02B4,2013-04-17 15:07:00,
2013-04-17 11:12:00,58.1,45.6,30.24,North,353,0.0,3.0,63,0.00,,,0.00,WeatherCatV1.02B4,2013-04-17 15:12:00,
2013-04-17 11:17:00,58.2,45.2,30.24,North,0,0.0,3.0,62,0.00,,,0.00,WeatherCatV1.02B4,2013-04-17 15:17:00,
2013-04-17 11:22:00,58.3,45.3,30.24,NNW,330,0.0,5.0,62,0.00,,,0.00,WeatherCatV1.02B4,2013-04-17 15:22:00,
2013-04-17 11:27:00,58.5,45.5,30.24,NNW,327,0.0,0.0,62,0.00,,,0.00,WeatherCatV1.02B4,2013-04-17 15:27:00,
2013-04-17 11:32:00,58.9,45.5,30.24,NNW,335,0.0,5.0,61,0.00,,,0.00,WeatherCatV1.02B4,2013-04-17 15:32:00,
2013-04-17 11:37:00,59.1,45.2,30.24,NNE,26,0.0,4.0,60,0.00,,,0.00,WeatherCatV1.02B4,2013-04-17 15:37:00,
2013-04-17 11:42:00,59.3,45.0,30.24,North,5,0.0,4.0,59,0.00,,,0.00,WeatherCatV1.02B4,2013-04-17 15:42:00,
2013-04-17 11:47:00,59.6,45.3,30.24,North,0,2.0,4.0,59,0.00,,,0.00,WeatherCatV1.02B4,2013-04-17 15:47:00,
2013-04-17 11:52:00,59.9,44.6,30.24,NNW,329,0.0,4.0,57,0.00,,,0.00,WeatherCatV1.02B4,2013-04-17 15:52:00,
2013-04-17 11:57:00,60.2,44.0,30.24,NNE,28,3.0,6.0,55,0.00,,,0.00,WeatherCatV1.02B4,2013-04-17 15:57:00,
2013-04-17 12:02:00,60.6,44.3,30.24,NE,41,6.0,9.0,55,0.00,,,0.00,WeatherCatV1.02B4,2013-04-17 16:02:00,
2013-04-17 12:07:00,60.8,44.5,30.24,NNE,14,0.0,4.0,55,0.00,,,0.00,WeatherCatV1.02B4,2013-04-17 16:07:00,
2013-04-17 12:12:00,60.7,44.0,30.24,NE,43,0.0,0.0,54,0.00,,,0.00,WeatherCatV1.02B4,2013-04-17 16:12:00,
2013-04-17 12:17:00,60.5,43.8,30.23,NNE,33,0.0,4.0,54,0.00,,,0.00,WeatherCatV1.02B4,2013-04-17 16:17:00,
2013-04-17 12:22:00,60.3,44.1,30.23,NNE,33,0.0,0.0,55,0.00,,,0.00,WeatherCatV1.02B4,2013-04-17 16:22:00,
2013-04-17 12:27:00,60.4,44.2,30.23,NNE,29,0.0,0.0,55,0.00,,,0.00,WeatherCatV1.02B4,2013-04-17 16:27:00,
2013-04-17 12:32:00,60.8,44.5,30.23,NNE,30,0.0,0.0,55,0.00,,,0.00,WeatherCatV1.02B4,2013-04-17 16:32:00,
2013-04-17 12:37:00,61.2,44.4,30.23,NE,40,4.0,7.0,54,0.00,,,0.00,WeatherCatV1.02B4,2013-04-17 16:37:00,
2013-04-17 12:42:00,61.4,44.6,30.23,NE,35,0.0,0.0,54,0.00,,,0.00,WeatherCatV1.02B4,2013-04-17 16:42:00,
2013-04-17 12:47:00,61.5,44.7,30.23,NNE,29,0.0,0.0,54,0.00,,,0.00,WeatherCatV1.02B4,2013-04-17 16:47:00,
2013-04-17 12:52:00,61.9,45.1,30.23,WNW,303,0.0,1.0,54,0.00,,,0.00,WeatherCatV1.02B4,2013-04-17 16:52:00,
2013-04-17 12:57:00,62.1,45.3,30.23,NW,305,0.0,0.0,54,0.00,,,0.00,WeatherCatV1.02B4,2013-04-17 16:57:00,
2013-04-17 13:02:00,62.1,44.3,30.23,NW,307,0.0,0.0,52,0.00,,,0.00,WeatherCatV1.02B4,2013-04-17 17:02:00,
2013-04-17 13:07:00,62.3,44.9,30.23,NW,311,0.0,0.0,53,0.00,,,0.00,WeatherCatV1.02B4,2013-04-17 17:07:00,
2013-04-17 13:12:00,62.6,45.2,30.23,WNW,300,0.0,0.0,53,0.00,,,0.00,WeatherCatV1.02B4,2013-04-17 17:12:00,
2013-04-17 13:17:00,62.8,45.4,30.23,WNW,301,0.0,0.0,53,0.00,,,0.00,WeatherCatV1.02B4,2013-04-17 17:17:00,
2013-04-17 13:22:00,62.7,44.8,30.23,NNE,18,0.0,0.0,52,0.00,,,0.00,WeatherCatV1.02B4,2013-04-17 17:22:00,
2013-04-17 13:27:00,62.7,45.3,30.23,NNE,18,0.0,0.0,53,0.00,,,0.00,WeatherCatV1.02B4,2013-04-17 17:27:00,
2013-04-17 13:32:00,62.8,45.4,30.23,NNE,18,3.0,4.0,53,0.00,,,0.00,WeatherCatV1.02B4,2013-04-17 17:32:00,
2013-04-17 13:37:00,63.1,45.2,30.22,NE,35,0.0,1.0,52,0.00,,,0.00,WeatherCatV1.02B4,2013-04-17 17:37:00,
2013-04-17 13:42:00,63.4,45.5,30.22,East,80,0.0,0.0,52,0.00,,,0.00,WeatherCatV1.02B4,2013-04-17 17:42:00,
2013-04-17 13:47:00,63.8,46.3,30.22,East,81,0.0,0.0,53,0.00,,,0.00,WeatherCatV1.02B4,2013-04-17 17:47:00,
2013-04-17 13:52:00,64.2,46.7,30.22,East,81,0.0,4.0,53,0.00,,,0.00,WeatherCatV1.02B4,2013-04-17 17:52:00,
2013-04-17 13:57:00,64.6,46.6,30.22,SE,141,4.0,5.0,52,0.00,,,0.00,WeatherCatV1.02B4,2013-04-17 17:57:00,
2013-04-17 14:02:00,65.2,46.6,30.23,SW,232,1.0,6.0,51,0.00,,,0.00,WeatherCatV1.02B4,2013-04-17 18:02:00,
2013-04-17 14:07:00,65.7,46.5,30.23,SW,232,0.0,0.0,50,0.00,,,0.00,WeatherCatV1.02B4,2013-04-17 18:07:00,
2013-04-17 14:12:00,65.9,47.3,30.22,SE,126,0.0,0.0,51,0.00,,,0.00,WeatherCatV1.02B4,2013-04-17 18:12:00,
2013-04-17 14:17:00,65.8,47.2,30.22,North,359,0.0,0.0,51,0.00,,,0.00,WeatherCatV1.02B4,2013-04-17 18:17:00,
2013-04-17 14:22:00,66.1,46.9,30.23,West,270,0.0,3.0,50,0.00,,,0.00,WeatherCatV1.02B4,2013-04-17 18:22:00,
2013-04-17 14:27:00,66.4,47.2,30.23,NNW,336,0.0,4.0,50,0.00,,,0.00,WeatherCatV1.02B4,2013-04-17 18:27:00,
2013-04-17 14:32:00,66.6,46.3,30.22,NW,307,0.0,0.0,48,0.00,,,0.00,WeatherCatV1.02B4,2013-04-17 18:32:00,
2013-04-17 14:37:00,66.8,47.0,30.22,North,0,1.0,5.0,49,0.00,,,0.00,WeatherCatV1.02B4,2013-04-17 18:37:00,
2013-04-17 14:42:00,66.8,46.5,30.22,ESE,117,0.0,5.0,48,0.00,,,0.00,WeatherCatV1.02B4,2013-04-17 18:42:00,
2013-04-17 14:47:00,67.0,46.7,30.22,ESE,117,0.0,0.0,48,0.00,,,0.00,WeatherCatV1.02B4,2013-04-17 18:47:00,
2013-04-17 14:52:00,67.2,45.7,30.22,ESE,118,0.0,0.0,46,0.00,,,0.00,WeatherCatV1.02B4,2013-04-17 18:52:00,
2013-04-17 14:57:00,67.5,46.0,30.21,ESE,122,0.0,0.0,46,0.00,,,0.00,WeatherCatV1.02B4,2013-04-17 18:57:00,
2013-04-17 15:02:00,68.0,45.9,30.21,ESE,122,0.0,0.0,45,0.00,,,0.00,WeatherCatV1.02B4,2013-04-17 19:02:00,
2013-04-17 15:07:00,68.5,46.3,30.21,SE,139,0.0,0.0,45,0.00,,,0.00,WeatherCatV1.02B4,2013-04-17 19:07:00,
2013-04-17 15:12:00,68.8,46.6,30.21,NE,46,0.0,1.0,45,0.00,,,0.00,WeatherCatV1.02B4,2013-04-17 19:12:00,
2013-04-17 15:17:00,68.6,45.8,30.21,WSW,255,3.0,4.0,44,0.00,,,0.00,WeatherCatV1.02B4,2013-04-17 19:17:00,
2013-04-17 15:22:00,68.5,44.5,30.21,WSW,257,0.0,0.0,42,0.00,,,0.00,WeatherCatV1.02B4,2013-04-17 19:22:00,
2013-04-17 15:27:00,68.4,45.0,30.20,North,350,0.0,3.0,43,0.00,,,0.00,WeatherCatV1.02B4,2013-04-17 19:27:00,
2013-04-17 15:32:00,68.5,45.1,30.20,NE,47,4.0,4.0,43,0.00,,,0.00,WeatherCatV1.02B4,2013-04-17 19:32:00,
2013-04-17 15:37:00,69.1,44.4,30.20,ESE,105,0.0,5.0,41,0.00,,,0.00,WeatherCatV1.02B4,2013-04-17 19:37:00,
2013-04-17 15:42:00,69.8,45.0,30.21,ESE,106,0.0,0.0,41,0.00,,,0.00,WeatherCatV1.02B4,2013-04-17 19:42:00,
2013-04-17 15:47:00,70.5,44.3,30.20,ESE,108,0.0,1.0,39,0.00,,,0.00,WeatherCatV1.02B4,2013-04-17 19:47:00,
2013-04-17 15:52:00,71.1,43.5,30.21,WSW,252,0.0,5.0,37,0.00,,,0.00,WeatherCatV1.02B4,2013-04-17 19:52:00,
2013-04-17 15:57:00,71.8,43.4,30.21,WSW,250,0.0,0.0,36,0.00,,,0.00,WeatherCatV1.02B4,2013-04-17 19:57:00,
2013-04-17 16:02:00,72.6,43.4,30.21,ESE,117,3.0,4.0,35,0.00,,,0.00,WeatherCatV1.02B4,2013-04-17 20:02:00,
2013-04-17 16:07:00,73.1,42.3,30.21,NE,37,0.0,1.0,33,0.00,,,0.00,WeatherCatV1.02B4,2013-04-17 20:07:00,
2013-04-17 16:12:00,72.7,41.9,30.21,NE,42,0.0,2.0,33,0.00,,,0.00,WeatherCatV1.02B4,2013-04-17 20:12:00,
2013-04-17 16:17:00,72.0,41.3,30.21,North,2,0.0,1.0,33,0.00,,,0.00,WeatherCatV1.02B4,2013-04-17 20:17:00,
2013-04-17 16:22:00,71.6,40.2,30.21,West,269,3.0,3.0,32,0.00,,,0.00,WeatherCatV1.02B4,2013-04-17 20:22:00,
2013-04-17 16:27:00,72.5,40.1,30.21,West,274,1.0,6.0,31,0.00,,,0.00,WeatherCatV1.02B4,2013-04-17 20:27:00,
2013-04-17 16:32:00,72.7,38.6,30.21,West,272,0.0,0.0,29,0.00,,,0.00,WeatherCatV1.02B4,2013-04-17 20:32:00,
2013-04-17 16:37:00,72.0,38.0,30.21,NNW,331,0.0,0.0,29,0.00,,,0.00,WeatherCatV1.02B4,2013-04-17 20:37:00,
2013-04-17 16:42:00,72.4,40.0,30.20,NNW,331,0.0,0.0,31,0.00,,,0.00,WeatherCatV1.02B4,2013-04-17 20:42:00,
2013-04-17 16:47:00,73.0,40.6,30.20,SSW,202,0.0,1.0,31,0.00,,,0.00,WeatherCatV1.02B4,2013-04-17 20:47:00,
2013-04-17 16:52:00,73.8,40.4,30.21,SE,145,3.0,5.0,30,0.00,,,0.00,WeatherCatV1.02B4,2013-04-17 20:52:00,
2013-04-17 16:57:00,74.3,40.0,30.21,SE,145,0.0,0.0,29,0.00,,,0.00,WeatherCatV1.02B4,2013-04-17 20:57:00,
2013-04-17 17:02:00,74.2,39.0,30.21,SE,145,0.0,0.0,28,0.00,,,0.00,WeatherCatV1.02B4,2013-04-17 21:02:00,
2013-04-17 17:07:00,73.7,39.5,30.21,North,1,1.0,4.0,29,0.00,,,0.00,WeatherCatV1.02B4,2013-04-17 21:07:00,
2013-04-17 17:12:00,72.5,38.4,30.21,North,0,0.0,2.0,29,0.00,,,0.00,WeatherCatV1.02B4,2013-04-17 21:12:00,
2013-04-17 17:17:00,72.3,40.8,30.21,West,277,0.0,0.0,32,0.00,,,0.00,WeatherCatV1.02B4,2013-04-17 21:17:00,
2013-04-17 17:22:00,73.1,40.7,30.21,West,270,0.0,4.0,31,0.00,,,0.00,WeatherCatV1.02B4,2013-04-17 21:22:00,
2013-04-17 17:27:00,73.8,40.4,30.21,West,271,0.0,0.0,30,0.00,,,0.00,WeatherCatV1.02B4,2013-04-17 21:27:00,
2013-04-17 17:33:00,74.3,40.8,30.21,West,264,0.0,0.0,30,0.00,,,0.00,WeatherCatV1.02B4,2013-04-17 21:33:00,
2013-04-17 17:38:00,73.9,40.5,30.21,West,264,0.0,0.0,30,0.00,,,0.00,WeatherCatV1.02B4,2013-04-17 21:38:00,
2013-04-17 17:43:00,74.4,40.1,30.20,West,264,0.0,0.0,29,0.00,,,0.00,WeatherCatV1.02B4,2013-04-17 21:43:00,
2013-04-17 17:48:00,73.8,38.6,30.20,WSW,241,0.0,0.0,28,0.00,,,0.00,WeatherCatV1.02B4,2013-04-17 21:48:00,
2013-04-17 17:53:00,73.4,41.7,30.20,SE,142,0.0,0.0,32,0.00,,,0.00,WeatherCatV1.02B4,2013-04-17 21:53:00,
2013-04-17 17:58:00,72.8,40.4,30.20,SE,142,0.0,0.0,31,0.00,,,0.00,WeatherCatV1.02B4,2013-04-17 21:58:00,
2013-04-17 18:03:00,72.0,39.7,30.20,SE,129,0.0,0.0,31,0.00,,,0.00,WeatherCatV1.02B4,2013-04-17 22:03:00,
2013-04-17 18:08:00,71.0,38.8,30.20,East,81,0.0,2.0,31,0.00,,,0.00,WeatherCatV1.02B4,2013-04-17 22:08:00,
2013-04-17 18:13:00,70.3,37.4,30.21,East,81,0.0,0.0,30,0.00,,,0.00,WeatherCatV1.02B4,2013-04-17 22:13:00,
2013-04-17 18:18:00,70.1,38.1,30.21,East,81,0.0,0.0,31,0.00,,,0.00,WeatherCatV1.02B4,2013-04-17 22:18:00,
2013-04-17 18:23:00,69.8,39.4,30.21,East,81,0.0,0.0,33,0.00,,,0.00,WeatherCatV1.02B4,2013-04-17 22:23:00,
2013-04-17 18:28:00,69.5,38.3,30.21,East,81,0.0,0.0,32,0.00,,,0.00,WeatherCatV1.02B4,2013-04-17 22:28:00,
2013-04-17 18:33:00,69.4,39.0,30.21,East,81,0.0,0.0,33,0.00,,,0.00,WeatherCatV1.02B4,2013-04-17 22:33:00,
2013-04-17 18:38:00,69.3,39.0,30.21,East,81,0.0,0.0,33,0.00,,,0.00,WeatherCatV1.02B4,2013-04-17 22:38:00,
2013-04-17 18:43:00,69.0,38.7,30.21,East,81,0.0,0.0,33,0.00,,,0.00,WeatherCatV1.02B4,2013-04-17 22:43:00,
2013-04-17 18:48:00,68.8,37.7,30.21,East,81,0.0,0.0,32,0.00,,,0.00,WeatherCatV1.02B4,2013-04-17 22:48:00,
2013-04-17 18:53:00,68.7,39.2,30.21,East,81,0.0,0.0,34,0.00,,,0.00,WeatherCatV1.02B4,2013-04-17 22:53:00,
2013-04-17 18:58:00,68.4,38.2,30.22,East,81,0.0,0.0,33,0.00,,,0.00,WeatherCatV1.02B4,2013-04-17 22:58:00,
2013-04-17 19:03:00,68.1,40.8,30.22,East,81,0.0,0.0,37,0.00,,,0.00,WeatherCatV1.02B4,2013-04-17 23:03:00,
2013-04-17 19:08:00,67.6,39.7,30.22,East,81,0.0,0.0,36,0.00,,,0.00,WeatherCatV1.02B4,2013-04-17 23:08:00,
2013-04-17 19:13:00,67.3,40.1,30.22,East,81,0.0,0.0,37,0.00,,,0.00,WeatherCatV1.02B4,2013-04-17 23:13:00,
2013-04-17 19:18:00,66.9,39.1,30.22,East,81,0.0,0.0,36,0.00,,,0.00,WeatherCatV1.02B4,2013-04-17 23:18:00,
2013-04-17 19:23:00,66.5,40.1,30.22,East,81,0.0,0.0,38,0.00,,,0.00,WeatherCatV1.02B4,2013-04-17 23:23:00,
2013-04-17 19:28:00,66.0,38.3,30.22,East,81,0.0,0.0,36,0.00,,,0.00,WeatherCatV1.02B4,2013-04-17 23:28:00,
2013-04-17 19:33:00,65.7,38.7,30.22,East,81,0.0,0.0,37,0.00,,,0.00,WeatherCatV1.02B4,2013-04-17 23:33:00,
2013-04-17 19:38:00,65.4,37.7,30.22,East,81,0.0,0.0,36,0.00,,,0.00,WeatherCatV1.02B4,2013-04-17 23:38:00,
2013-04-17 19:43:00,65.2,38.3,30.22,East,81,0.0,0.0,37,0.00,,,0.00,WeatherCatV1.02B4,2013-04-17 23:43:00,
2013-04-17 19:48:00,64.8,37.9,30.22,East,81,0.0,0.0,37,0.00,,,0.00,WeatherCatV1.02B4,2013-04-17 23:48:00,
2013-04-17 19:53:00,64.5,37.6,30.22,East,81,0.0,0.0,37,0.00,,,0.00,WeatherCatV1.02B4,2013-04-17 23:53:00,
2013-04-17 19:58:00,64.1,38.0,30.22,East,81,0.0,0.0,38,0.00,,,0.00,WeatherCatV1.02B4,2013-04-17 23:58:00,
2013-04-17 20:03:00,63.7,38.3,30.23,East,81,0.0,0.0,39,0.00,,,0.00,WeatherCatV1.02B4,2013-04-18 00:03:00,
2013-04-17 20:08:00,63.3,39.8,30.23,East,81,0.0,0.0,42,0.00,,,0.00,WeatherCatV1.02B4,2013-04-18 00:08:00,
2013-04-17 20:13:00,62.6,39.2,30.23,East,81,0.0,0.0,42,0.00,,,0.00,WeatherCatV1.02B4,2013-04-18 00:13:00,
2013-04-17 20:18:00,62.2,39.4,30.23,East,81,0.0,0.0,43,0.00,,,0.00,WeatherCatV1.02B4,2013-04-18 00:18:00,
2013-04-17 20:23:00,61.8,40.2,30.23,East,81,0.0,0.0,45,0.00,,,0.00,WeatherCatV1.02B4,2013-04-18 00:23:00,
2013-04-17 20:28:00,61.2,40.3,30.23,East,81,0.0,0.0,46,0.00,,,0.00,WeatherCatV1.02B4,2013-04-18 00:28:00,
2013-04-17 20:33:00,60.7,39.2,30.24,East,81,0.0,0.0,45,0.00,,,0.00,WeatherCatV1.02B4,2013-04-18 00:33:00,
2013-04-17 20:38:00,60.2,38.8,30.24,East,81,0.0,0.0,45,0.00,,,0.00,WeatherCatV1.02B4,2013-04-18 00:38:00,
2013-04-17 20:43:00,59.9,39.1,30.24,East,81,0.0,0.0,46,0.00,,,0.00,WeatherCatV1.02B4,2013-04-18 00:43:00,
2013-04-17 20:48:00,59.5,38.7,30.24,East,81,0.0,0.0,46,0.00,,,0.00,WeatherCatV1.02B4,2013-04-18 00:48:00,
2013-04-17 20:53:00,59.3,38.5,30.25,ESE,116,7.0,7.0,46,0.00,,,0.00,WeatherCatV1.02B4,2013-04-18 00:53:00,
2013-04-17 20:58:00,59.6,41.4,30.25,SSE,159,4.0,13.0,51,0.00,,,0.00,WeatherCatV1.02B4,2013-04-18 00:58:00,
2013-04-17 21:03:00,60.1,42.9,30.25,ESE,121,3.0,11.0,53,0.00,,,0.00,WeatherCatV1.02B4,2013-04-18 01:03:00,
2013-04-17 21:08:00,60.3,43.6,30.26,SE,142,3.0,9.0,54,0.00,,,0.00,WeatherCatV1.02B4,2013-04-18 01:08:00,
2013-04-17 21:13:00,60.3,44.1,30.27,SE,137,10.0,10.0,55,0.00,,,0.00,WeatherCatV1.02B4,2013-04-18 01:13:00,
2013-04-17 21:18:00,60.2,44.0,30.26,SSE,148,5.0,8.0,55,0.00,,,0.00,WeatherCatV1.02B4,2013-04-18 01:18:00,
2013-04-17 21:23:00,60.0,44.3,30.26,SE,138,5.0,13.0,56,0.00,,,0.00,WeatherCatV1.02B4,2013-04-18 01:23:00,
2013-04-17 21:28:00,59.8,44.1,30.27,SSE,153,8.0,11.0,56,0.00,,,0.00,WeatherCatV1.02B4,2013-04-18 01:28:00,
2013-04-17 21:33:00,59.6,43.9,30.27,SE,145,7.0,13.0,56,0.00,,,0.00,WeatherCatV1.02B4,2013-04-18 01:33:00,
2013-04-17 21:38:00,59.4,43.7,30.27,SE,140,7.0,9.0,56,0.00,,,0.00,WeatherCatV1.02B4,2013-04-18 01:38:00,
2013-04-17 21:43:00,59.1,43.4,30.28,SSE,154,5.0,13.0,56,0.00,,,0.00,WeatherCatV1.02B4,2013-04-18 01:43:00,
2013-04-17 21:48:00,58.9,43.7,30.28,SSE,161,6.0,9.0,57,0.00,,,0.00,WeatherCatV1.02B4,2013-04-18 01:48:00,
2013-04-17 21:53:00,58.7,43.5,30.27,SSE,162,7.0,8.0,57,0.00,,,0.00,WeatherCatV1.02B4,2013-04-18 01:53:00,
2013-04-17 21:58:00,58.5,43.3,30.27,SSE,156,2.0,12.0,57,0.00,,,0.00,WeatherCatV1.02B4,2013-04-18 01:58:00,
2013-04-17 22:03:00,58.3,43.1,30.27,SSE,163,6.0,8.0,57,0.00,,,0.00,WeatherCatV1.02B4,2013-04-18 02:03:00,
2013-04-17 22:08:00,58.0,42.4,30.27,SSE,158,5.0,11.0,56,0.00,,,0.00,WeatherCatV1.02B4,2013-04-18 02:08:00,
2013-04-17 22:13:00,57.8,42.2,30.27,SSE,153,4.0,11.0,56,0.00,,,0.00,WeatherCatV1.02B4,2013-04-18 02:13:00,
2013-04-17 22:18:00,57.6,41.1,30.27,SSE,159,7.0,9.0,54,0.00,,,0.00,WeatherCatV1.02B4,2013-04-18 02:18:00,
2013-04-17 22:23:00,57.4,40.9,30.27,SSE,166,5.0,8.0,54,0.00,,,0.00,WeatherCatV1.02B4,2013-04-18 02:23:00,
2013-04-17 22:28:00,57.3,41.3,30.27,SE,142,8.0,12.0,55,0.00,,,0.00,WeatherCatV1.02B4,2013-04-18 02:28:00,
2013-04-17 22:33:00,57.1,41.1,30.27,SSE,158,4.0,7.0,55,0.00,,,0.00,WeatherCatV1.02B4,2013-04-18 02:33:00,
2013-04-17 22:38:00,56.9,40.9,30.27,SE,131,5.0,6.0,55,0.00,,,0.00,WeatherCatV1.02B4,2013-04-18 02:38:00,
2013-04-17 22:43:00,56.8,40.8,30.28,SSE,149,5.0,5.0,55,0.00,,,0.00,WeatherCatV1.02B4,2013-04-18 02:43:00,
2013-04-17 22:48:00,56.7,41.2,30.28,SE,128,4.0,7.0,56,0.00,,,0.00,WeatherCatV1.02B4,2013-04-18 02:48:00,
2013-04-17 22:53:00,56.5,41.0,30.29,SE,134,3.0,5.0,56,0.00,,,0.00,WeatherCatV1.02B4,2013-04-18 02:53:00,
2013-04-17 22:58:00,56.4,40.9,30.29,SE,134,0.0,0.0,56,0.00,,,0.00,WeatherCatV1.02B4,2013-04-18 02:58:00,
2013-04-17 23:03:00,56.3,40.8,30.29,SSE,155,0.0,0.0,56,0.00,,,0.00,WeatherCatV1.02B4,2013-04-18 03:03:00,
2013-04-17 23:08:00,56.2,41.2,30.29,SSE,155,0.0,0.0,57,0.00,,,0.00,WeatherCatV1.02B4,2013-04-18 03:08:00,
2013-04-17 23:13:00,56.0,41.0,30.29,SSE,147,4.0,5.0,57,0.00,,,0.00,WeatherCatV1.02B4,2013-04-18 03:13:00,
2013-04-17 23:18:00,55.9,40.9,30.29,SSE,147,0.0,0.0,57,0.00,,,0.00,WeatherCatV1.02B4,2013-04-18 03:18:00,
2013-04-17 23:23:00,55.8,41.2,30.29,SE,137,3.0,5.0,58,0.00,,,0.00,WeatherCatV1.02B4,2013-04-18 03:23:00,
2013-04-17 23:28:00,55.7,41.2,30.29,SE,137,0.0,0.0,58,0.00,,,0.00,WeatherCatV1.02B4,2013-04-18 03:28:00,
2013-04-17 23:33:00,55.6,41.1,30.29,SE,138,0.0,0.0,58,0.00,,,0.00,WeatherCatV1.02B4,2013-04-18 03:33:00,
2013-04-17 23:38:00,55.5,41.0,30.29,SE,138,0.0,0.0,58,0.00,,,0.00,WeatherCatV1.02B4,2013-04-18 03:38:00,
2013-04-17 23:43:00,55.4,40.9,30.29,SE,138,0.0,0.0,58,0.00,,,0.00,WeatherCatV1.02B4,2013-04-18 03:43:00,
2013-04-17 23:48:00,55.2,41.1,30.30,SE,138,0.0,0.0,59,0.00,,,0.00,WeatherCatV1.02B4,2013-04-18 03:48:00,
2013-04-17 23:53:00,55.0,40.9,30.29,SE,138,0.0,0.0,59,0.00,,,0.00,WeatherCatV1.02B4,2013-04-18 03:53:00,
2013-04-17 23:58:00,54.8,41.2,30.30,SE,138,0.0,0.0,60,0.00,,,0.00,WeatherCatV1.02B4,2013-04-18 03:58:00,